When you browse on this site, cookies collect data to enhance your experience and personalize the content and advertising you see.
Visit our Privacy Policy to learn more. By continuing to use the site, you agree to this use of cookies and data.
  • In Spain
  • List of Countries
  • For 7 days
  • Water Temperature
  • Satellite Maps
  • Weather Map
  • Weather Widgets
  • user-avatar
    Login

    Hourly Weather Kyrdzhali

    Today, 21 January, Monday

    Time Temperature Precipitation Wind Pressure Humidity
    00:00 +5°C° 0 mm 1 mps 725 mmHg 90%
    01:00 +5°C° 0 mm 1 mps 725 mmHg 89%
    02:00 +3°C° 0 mm 0 mps 725 mmHg 90%
    03:00 +4°C° 0 mm 1 mps 725 mmHg 90%
    04:00 +4°C° 0 mm 1 mps 725 mmHg 89%
    05:00 +4°C° 0 mm 1 mps 725 mmHg 89%
    06:00 +4°C° 0 mm 1 mps 725 mmHg 89%
    07:00 +3°C° 0 mm 1 mps 725 mmHg 89%
    08:00 +3°C° 0 mm 1 mps 726 mmHg 89%
    09:00 +5°C° 0 mm 1 mps 726 mmHg 86%
    10:00 +6°C° 0 mm 1 mps 726 mmHg 82%
    11:00 +7°C° 0 mm 2 mps 727 mmHg 78%
    12:00 +7°C° 0 mm 2 mps 727 mmHg 77%
    13:00 +7°C° 0 mm 2 mps 727 mmHg 76%
    14:00 +8°C° 0 mm 2 mps 727 mmHg 74%
    15:00 +7°C° 0 mm 2 mps 727 mmHg 78%
    16:00 +8°C° 0 mm 1 mps 727 mmHg 81%
    17:00 +7°C° 0 mm 1 mps 727 mmHg 85%
    18:00 +6°C° 0 mm 1 mps 727 mmHg 87%
    19:00 +6°C° 0 mm 1 mps 727 mmHg 90%
    20:00 +5°C° 0 mm 1 mps 728 mmHg 92%
    21:00 +5°C° 0 mm 1 mps 728 mmHg 93%
    22:00 +5°C° 0 mm 1 mps 728 mmHg 93%
    23:00 +5°C° 0 mm 1 mps 728 mmHg 93%

    Tomorrow, 22 January, Tuesday

    Time Temperature Precipitation Wind Pressure Humidity
    00:00 +5°C° 0 mm 1 mps 728 mmHg 93%
    01:00 +5°C° 0 mm 1 mps 728 mmHg 94%
    02:00 +5°C° 0 mm 1 mps 728 mmHg 94%
    03:00 +4°C° 0.1 mm 1 mps 728 mmHg 94%
    04:00 +4°C° 0.1 mm 1 mps 727 mmHg 94%
    05:00 +4°C° 0.1 mm 1 mps 727 mmHg 94%
    06:00 +4°C° 0.2 mm 1 mps 727 mmHg 94%
    07:00 +4°C° 0.2 mm 1 mps 727 mmHg 94%
    08:00 +4°C° 0.2 mm 1 mps 727 mmHg 94%
    09:00 +4°C° 0.1 mm 1 mps 727 mmHg 93%
    10:00 +4°C° 0.1 mm 1 mps 727 mmHg 91%
    11:00 +5°C° 0.1 mm 1 mps 726 mmHg 90%
    12:00 +5°C° 0 mm 1 mps 726 mmHg 88%
    13:00 +5°C° 0 mm 2 mps 725 mmHg 85%
    14:00 +6°C° 0 mm 2 mps 725 mmHg 83%
    15:00 +6°C° 0 mm 2 mps 724 mmHg 86%
    16:00 +6°C° 0 mm 2 mps 724 mmHg 88%
    17:00 +5°C° 0 mm 2 mps 723 mmHg 90%
    18:00 +5°C° 0.1 mm 2 mps 723 mmHg 92%
    19:00 +5°C° 0.1 mm 2 mps 723 mmHg 93%
    20:00 +5°C° 0.1 mm 2 mps 722 mmHg 94%
    21:00 +5°C° 0.3 mm 2 mps 722 mmHg 95%
    22:00 +5°C° 0.3 mm 2 mps 721 mmHg 95%
    23:00 +5°C° 0.3 mm 2 mps 721 mmHg 95%

    Day after tomorrow, 23 January, Wednesday

    Time Temperature Precipitation Wind Pressure Humidity
    00:00 +6°C° 0.9 mm 2 mps 720 mmHg 96%
    01:00 +5°C° 0.9 mm 3 mps 719 mmHg 96%
    02:00 +5°C° 0.9 mm 3 mps 719 mmHg 97%
    03:00 +7°C° 0.4 mm 3 mps 718 mmHg 96%
    04:00 +6°C° 0.4 mm 4 mps 718 mmHg 95%
    05:00 +7°C° 0.4 mm 4 mps 717 mmHg 94%
    06:00 +6°C° 0 mm 4 mps 717 mmHg 94%
    07:00 +7°C° 0 mm 3 mps 718 mmHg 94%
    08:00 +5°C° 0 mm 3 mps 718 mmHg 95%
    09:00 +8°C° 0 mm 3 mps 718 mmHg 87%
    10:00 +8°C° 0 mm 4 mps 718 mmHg 80%
    11:00 +9°C° 0 mm 5 mps 718 mmHg 73%
    12:00 +10°C° 0 mm 5 mps 718 mmHg 69%
    13:00 +10°C° 0 mm 6 mps 718 mmHg 66%
    14:00 +11°C° 0 mm 6 mps 718 mmHg 62%
    15:00 +10°C° 0 mm 5 mps 718 mmHg 68%
    16:00 +9°C° 0 mm 5 mps 717 mmHg 74%
    17:00 +8°C° 0 mm 4 mps 717 mmHg 80%
    18:00 +7°C° 0.1 mm 4 mps 717 mmHg 84%
    19:00 +8°C° 0.1 mm 3 mps 717 mmHg 88%
    20:00 +8°C° 0.1 mm 3 mps 718 mmHg 92%
    21:00 +7°C° 0.4 mm 4 mps 717 mmHg 92%
    22:00 +7°C° 0.4 mm 4 mps 717 mmHg 93%
    23:00 +7°C° 0.4 mm 4 mps 717 mmHg 93%

    24 January, Thursday

    Time Temperature Precipitation Wind Pressure Humidity
    00:00 +7°C° 1.2 mm 4 mps 717 mmHg 94%
    01:00 +7°C° 1.2 mm 4 mps 717 mmHg 95%
    02:00 +7°C° 1.2 mm 4 mps 716 mmHg 97%
    03:00 +8°C° 1.5 mm 3 mps 716 mmHg 96%
    04:00 +8°C° 1.5 mm 3 mps 715 mmHg 96%
    05:00 +8°C° 1.5 mm 3 mps 714 mmHg 96%
    06:00 +7°C° 1.6 mm 3 mps 714 mmHg 96%
    07:00 +7°C° 1.6 mm 3 mps 714 mmHg 96%
    08:00 +7°C° 1.6 mm 2 mps 714 mmHg 96%
    09:00 +8°C° 1.1 mm 3 mps 714 mmHg 92%
    10:00 +8°C° 1.1 mm 3 mps 714 mmHg 88%
    11:00 +8°C° 1.1 mm 4 mps 714 mmHg 83%
    12:00 +7°C° 1.3 mm 4 mps 714 mmHg 85%
    13:00 +7°C° 1.3 mm 4 mps 713 mmHg 87%
    14:00 +7°C° 1.3 mm 5 mps 713 mmHg 89%
    15:00 +7°C° 0.8 mm 4 mps 713 mmHg 90%
    16:00 +8°C° 0.8 mm 3 mps 713 mmHg 90%
    17:00 +8°C° 0.8 mm 2 mps 713 mmHg 91%
    18:00 +7°C° 0.5 mm 2 mps 713 mmHg 93%
    19:00 +7°C° 0.5 mm 2 mps 713 mmHg 94%
    20:00 +6°C° 0.5 mm 2 mps 713 mmHg 96%
    21:00 +6°C° 1.9 mm 2 mps 714 mmHg 96%
    22:00 +6°C° 1.9 mm 2 mps 714 mmHg 96%
    23:00 +5°C° 1.9 mm 3 mps 714 mmHg 96%

    25 January, Friday

    Time Temperature Precipitation Wind Pressure Humidity
    00:00 +5°C° 2.3 mm 3 mps 714 mmHg 97%
    01:00 +5°C° 2.3 mm 3 mps 715 mmHg 97%
    02:00 +5°C° 2.3 mm 3 mps 715 mmHg 97%
    03:00 +6°C° 0.5 mm 2 mps 715 mmHg 97%
    04:00 +6°C° 0.5 mm 2 mps 715 mmHg 97%
    05:00 +7°C° 0.5 mm 2 mps 715 mmHg 98%
    06:00 +7°C° 0.3 mm 2 mps 716 mmHg 98%
    07:00 +7°C° 0.3 mm 2 mps 716 mmHg 98%
    08:00 +8°C° 0.3 mm 1 mps 716 mmHg 98%
    09:00 +7°C° 3.3 mm 2 mps 716 mmHg 97%
    10:00 +7°C° 3.3 mm 3 mps 716 mmHg 97%
    11:00 +7°C° 3.3 mm 4 mps 716 mmHg 96%
    12:00 +7°C° 2.8 mm 4 mps 716 mmHg 96%
    13:00 +7°C° 2.8 mm 4 mps 716 mmHg 95%
    14:00 +7°C° 2.8 mm 4 mps 715 mmHg 95%
    15:00 +7°C° 0.4 mm 5 mps 715 mmHg 91%
    16:00 +7°C° 0.4 mm 6 mps 715 mmHg 87%
    17:00 +6°C° 0.4 mm 7 mps 715 mmHg 82%
    18:00 +5°C° 0 mm 6 mps 715 mmHg 86%
    19:00 +6°C° 0 mm 4 mps 715 mmHg 89%
    20:00 +5°C° 0 mm 3 mps 715 mmHg 92%
    21:00 +6°C° 0.1 mm 2 mps 715 mmHg 94%
    22:00 +6°C° 0.1 mm 2 mps 715 mmHg 95%
    23:00 +7°C° 0.1 mm 1 mps 715 mmHg 97%

    26 January, Saturday

    Time Temperature Precipitation Wind Pressure Humidity
    00:00 +7°C° 0.1 mm 1 mps 715 mmHg 96%
    01:00 +7°C° 0.1 mm 1 mps 715 mmHg 96%
    02:00 +7°C° 0.1 mm 1 mps 715 mmHg 95%
    03:00 +6°C° 0 mm 1 mps 715 mmHg 94%
    04:00 +5°C° 0 mm 2 mps 715 mmHg 93%
    05:00 +5°C° 0 mm 2 mps 715 mmHg 92%
    06:00 +4°C° 0.2 mm 2 mps 715 mmHg 88%
    07:00 +3°C° 0.2 mm 3 mps 716 mmHg 85%
    08:00 +3°C° 0.2 mm 3 mps 716 mmHg 81%
    09:00 +3°C° 0.3 mm 3 mps 716 mmHg 80%
    10:00 +3°C° 0.3 mm 4 mps 716 mmHg 79%
    11:00 +3°C° 0.3 mm 4 mps 717 mmHg 78%
    12:00 +3°C° 0.5 mm 4 mps 717 mmHg 79%
    13:00 +3°C° 0.5 mm 4 mps 716 mmHg 81%
    14:00 +2°C° 0.5 mm 5 mps 716 mmHg 82%
    15:00 +1°C° 1.4 mm 4 mps 716 mmHg 85%
    16:00 +1°C° 1.4 mm 4 mps 717 mmHg 89%
    17:00 0°C° 1.4 mm 4 mps 717 mmHg 92%
    18:00 0°C° 0.6 mm 4 mps 717 mmHg 92%
    19:00 0°C° 0.6 mm 4 mps 717 mmHg 92%
    20:00 0°C° 0.6 mm 4 mps 717 mmHg 92%
    21:00 0°C° 0.2 mm 4 mps 717 mmHg 92%
    22:00 0°C° 0.2 mm 4 mps 717 mmHg 91%
    23:00 -1°C° 0.2 mm 4 mps 717 mmHg 91%
    Show more